Showing default

IRIDIUM 148, 43255

Orbit data source: Space-Track

IRIDIUM 148, 43255 is a payload satellite owned by Iridium (US) in LEO that was launched on Fri, 30 Mar 2018 UTC via an FALCON 9 launch vehicle from the Air Force Western Test Range (AFWTR). Payload-class satellites include a variety of spacecraft equipped with specific instruments for various scientific and technological missions. These include communications satellites like Starlink; space stations such as the ISS; scientific satellites like the Hubble; Earth observation satellites from companies like Planet Labs, Umbra, and HawkEye 360; GPS; miniature CubeSats for education and research; and military/defense satellites.

Loading next visibility...
Identifier
43255, 2018-030G
Orbit
LEO
Country
Flag of USUS
Related business
Manufacturer
OATK SSG Gilbert
Mission
Operational Commercial Communications
Bus & Motor
ELITEBUS, Unknown motor
Mass
860 kg wet, 700 kg dry
Launch date (UTC)
2018-03-30 (8 years ago)
Launch vehicle
FALCON 9
Launch site
Air Force Western Test Range (AFWTR)
Object type
Payload
Rocket body
Debris
Shape & HBR
Trap Box + 2 Pan, 4.8 m
Radar Cross Section
10.154 m², Large (>1 m²)

Expand to show TLE details & history
Last TLE update: 8 hours ago

TLE from 8 hours ago
0 IRIDIUM 148
1 43255U 18030G   26094.88484606  .00000324  00000-0  10875-3 0  9999
2 43255  86.3966 321.1291 0002150  85.5219 274.6222 14.34221561419666
Epoch: 2026-04-04T21:14Z
TLE epoch observation values (Epoch: 2026-04-04T21:14:10.699Z)
Latitude
-0.00007°
Longitude
169.38631°
Altitude
780.582 km
Speed
7.464 km/s
True Right ascension
21h 24m 30s
True Declination
0° 00' 00"
Sunlit
Object was in daylight at epoch
Visualization orbit readout
Latitude
Unknown
Longitude
Unknown
Altitude
Unknown
Speed
Unknown
Apparent Right ascension
Unknown
Apparent Declination
Unknown
Sunlit
N/A
Visualization observer readout
Local Sidereal Time
11:32:58
Azimuth
Unknown
Elevation
Unknown
Doppler factor
Unknown
Orbital elements
Apogee altitude
776.157 km
Perigee altitude
773.081 km
Semi-major axis
7,152.756 km
Eccentricity
0.00022
Inclination
86.3966°
RAAN
321.1291°
Arg. of periapsis
85.5219°
True anomaly
274.59764°
Mean anomaly
274.6222°
Eccentric anomaly
274.60992°
Mean motion
3.58784 °/min
Orbital period
100.34 mins
BSTAR
0.00010875
Loading maneuver chart data...
Computing Atmospheric mass density...
Loading historical data...
Loading historical data...
Loading historical data...
Loading historical data...
Loading historical data...
Loading historical data...
Loading historical data...

Documentation

Showing up to 5 results
|